SL-14 R/B, 17536

Orbit data source: Space-Track

SL-14 R/B, 17536 is space debris in LEO originally from a launch on Fri, 20 Feb 1987 UTC launched from the Plesetsk Missile And Space Complex (PKMTR). Debris objects in space refer to the collection of defunct objects orbiting the Earth. Examples of debris include non-operational satellites, rocket bodies, and fragments generated from explosions, collisions, or faulty payload assembly.

Loading next visibility...
Identifier
17536, 1987-020B
Orbit
LEO
Country
Flag of CISCIS
Related business
Manufacturer
Yuzhnoe
Mission
Spacecraft
Bus & Motor
S5M, Unknown motor
Mass
1,600 kg wet, 1,600 kg dry
Launch date (UTC)
1987-02-20 (39 years ago)
Launch vehicle
Unknown
Launch site
Plesetsk Missile And Space Complex (PKMTR)
Object type
Payload
Rocket body
Debris
Shape & HBR
Cyl, 1.4 m
Radar Cross Section
7.351 m², Large (>1 m²)

Expand to show TLE details & history
Last TLE update: 2 days ago

TLE from 2 days ago
0 SL-14 R/B
1 17536U 87020B   26171.39784288 -.00000017  00000-0  62071-5 0  9995
2 17536  73.6114  36.1247 0027142 219.3022 314.1228 12.41637907746619
Epoch: 2026-06-20T09:32Z
TLE epoch observation values (Epoch: 2026-06-20T09:32:53.624Z)
Latitude
6.45743°
Longitude
162.39001°
Altitude
1,486.554 km
Speed
7.128 km/s
True Right ascension
14h 16m 54s
True Declination
6° 25' 22"
Sunlit
Object was in daylight at epoch
Visualization orbit readout
Latitude
Unknown
Longitude
Unknown
Altitude
Unknown
Speed
Unknown
Apparent Right ascension
Unknown
Apparent Declination
Unknown
Sunlit
N/A
Visualization observer readout
Local Sidereal Time
03:40:39
Azimuth
Unknown
Elevation
Unknown
Doppler factor
Unknown
Orbital elements
Apogee altitude
1,518.921 km
Perigee altitude
1,476.169 km
Semi-major axis
7,875.682 km
Eccentricity
0.00271
Inclination
73.6114°
RAAN
36.1247°
Arg. of periapsis
219.3022°
True anomaly
313.899°
Mean anomaly
314.1228°
Eccentric anomaly
314.01095°
Mean motion
3.10535 °/min
Orbital period
115.93 mins
BSTAR
0.0000062071
Loading maneuver chart data...
Computing Atmospheric mass density...

Documentation

Showing up to 5 results
|